Location: Cahas Mountain Overlook
(37.0833°N, 80.1000°W)
Time: 00:50:51
(UTC-04:00)

A-11 Canister half - Visible Passes

Search period start: 16 May 2026 00:00
Search period end: 26 May 2026 00:00
Orbit: 1523 x 1685 km, 47.3° (Epoch: 15 May)

Date Brightness Start Highest point End Pass type
(mag) Time Alt. Az. Time Alt. Az. Time Alt. Az.
16 May 10.0 01:55:49 10° WNW 02:01:33 30° W 02:01:33 30° W visible
16 May 9.9 21:22:35 10° WNW 21:31:56 48° N 21:41:34 10° E visible
16 May 9.1 23:28:11 10° WNW 23:38:10 81° NNE 23:42:08 44° ESE visible
17 May 9.9 01:33:51 10° WNW 01:40:22 34° WSW 01:40:22 34° WSW visible
17 May 9.9 21:00:40 10° WNW 21:09:59 47° N 21:19:34 10° E visible
17 May 9.1 23:06:19 10° WNW 23:16:16 78° NNE 23:21:02 37° ESE visible
18 May 9.7 01:11:54 10° WNW 01:19:16 38° WSW 01:19:16 38° WSW visible
18 May 9.9 20:38:45 10° WNW 20:48:01 47° N 20:57:35 10° ENE visible
18 May 9.2 22:44:27 10° WNW 22:54:21 76° NNE 22:59:58 31° ESE visible
19 May 9.6 00:49:57 10° WNW 00:58:13 41° WSW 00:58:13 41° WSW visible
19 May 9.2 22:22:35 10° WNW 22:32:26 73° NNE 22:38:58 26° ESE visible
20 May 9.5 00:28:02 10° WNW 00:37:13 45° SW 00:37:13 45° SW visible
20 May 9.3 22:00:43 10° WNW 22:10:32 71° NNE 22:18:00 21° ESE visible
21 May 9.4 00:06:07 10° WNW 00:15:25 47° SW 00:16:16 46° SSW visible
21 May 9.3 21:38:51 10° WNW 21:48:37 69° NNE 21:57:05 16° ESE visible
21 May 9.3 23:44:12 10° WNW 23:53:35 50° SW 23:55:21 46° SSW visible
22 May 9.4 21:16:59 10° WNW 21:26:42 66° NNE 21:36:13 12° ESE visible
22 May 9.4 23:22:17 10° WNW 23:31:44 52° SW 23:34:28 43° S visible
23 May 10.9 01:32:18 10° WSW 01:32:44 10° WSW 01:32:44 10° WSW visible
23 May 9.4 20:55:07 10° WNW 21:04:47 64° NNE 21:14:45 10° ESE visible
23 May 9.3 23:00:23 10° WNW 23:09:54 55° SW 23:13:39 38° S visible
24 May 10.8 01:09:36 10° W 01:11:55 12° WSW 01:11:55 12° WSW visible
24 May 9.3 22:38:30 10° WNW 22:48:03 58° SW 22:52:52 33° SSE visible
25 May 10.7 00:47:06 10° W 00:51:08 14° WSW 00:51:08 14° WSW visible
25 May 9.3 22:16:36 10° WNW 22:26:12 61° SW 22:32:07 27° SSE visible
